Skip Page Navigation
NASA JPL Caltech
NASA Logo - Jet Propulsion Laboratory + View the NASA Portal
+ Center for Near-Earth Object Studies
JPL Home Earth Solar System Stars & Galaxies Technology
JPL Solar System Dynamics
BODIES ORBITS EPHEMERIDES TOOLS PHYSICAL DATA DISCOVERY FAQ SITE MAP
JPL Small-Body Database Browser
Search: [ help ]  
118665 (2000 KE34)
Classification: Main-belt Asteroid          SPK-ID: 2118665
Ephemeris | Orbit Diagram | Orbital Elements | Mission Design | Physical Parameters | Discovery Circumstances | Close-Approach Data ]

[ show orbit diagram ]
Orbital Elements at Epoch 2459000.5 (2020-May-31.0) TDB
Reference: JPL 15 (heliocentric ecliptic J2000)
 Element Value Uncertainty (1-sigma)   Units 
e .06187610688516773 4.7264e-08  
a 2.371999168304694 1.1631e-08 au
q 2.225229094235144 1.1056e-07 au
i 7.249552396310081 4.9373e-06 deg
node 203.6061539546396 3.0688e-05 deg
peri 352.8458807566421 4.8539e-05 deg
M 201.5219822239355 4.0226e-05 deg
tp 2459587.903804703500
(2022-Jan-08.40380470)
0.00015019 TDB
period 1334.351430316782
3.65
9.8148e-06
2.687e-08
d
yr
n .2697939926624384 1.9845e-09 deg/d
Q 2.518769242374244 1.2351e-08 au
  Orbit Determination Parameters
   # obs. used (total)      777  
   data-arc span      7128 days (19.52 yr)  
   first obs. used      2000-04-25  
   last obs. used      2019-10-31  
   planetary ephem.      DE431  
   SB-pert. ephem.      SB431-N16  
   condition code      0  
   norm. resid. RMS      .57459  
   source      ORB  
   producer      Otto Matic  
   solution date      2019-Nov-07 14:02:05  

Additional Information
 Earth MOID = 1.22313 au 
 Jupiter MOID = 2.44005 au 
 T_jup = 3.531 
[ show covariance matrix ]

Ephemeris | Orbit Diagram | Orbital Elements | Mission Design | Physical Parameters | Discovery Circumstances | Close-Approach Data ]

Physical Parameter Table
Parameter Symbol Value Units Sigma Reference Notes
absolute magnitude H 16.0   n/a MPO396016  

118665 (2000 KE34)          Discovered 2000-May-27 by LINEAR at Socorro
Reference: 20051116/Numbers.arcLast Updated: 2005-11-21

[ show close-approach data ]
Alternate Designations
 2000 KE34 = 2001 SC142 
Ephemeris | Orbit Diagram | Orbital Elements | Mission Design | Physical Parameters | Discovery Circumstances | Close-Approach Data ]
ABOUT SSD CREDITS/AWARDS PRIVACY/COPYRIGHT GLOSSARY LINKS
FirstGov 2020-Oct-19 22:18 UT
(server date/time)  
NASA Home Page
Site Manager:   Ryan S. Park
Webmaster  Alan B. Chamberlin